Location: Catstown
(52.4386°N, 7.2633°W)
Time: 11:17:26
(UTC+00:00)

Cosmos 1833 Rocket - Pass Details

Date: 26 January 2021
Orbit: 833 x 839 km, 71.0° (Epoch: 24 February)

Event Time Altitude Azimuth Distance (km) Brightness Sun altitude
Rises 17:48:06 0° 329° (NNW) 3,393 6.0 -6.8°
Reaches altitude 10° 17:50:44 10° 338° (NNW) 2,457 5.1 -7.1°
Maximum altitude 17:55:58 38° 46° (NE) 1,262 3.2 -7.9°
Drops below altitude 10° 18:01:10 10° 114° (ESE) 2,447 4.7 -8.6°
Sets 18:03:47 0° 122° (ESE) 3,379 5.5 -9.0°
